Home > Weather > Pamplona > Past weeks

Flag for Spain Past Weather in Pamplona, Spain — Yesterday and Last 2 Weeks

Now
91 °F

Sunny.


Feels Like: 87 °F
Forecast: 65 / 92 °F
Wind: 12 mph from Southeast

Location: Pamplona / Noain

Current Time: Aug 24, 2016 at 8:18:28 PM

Latest Report: Aug 24, 2016 at 8:00 PM


Visibility: 10 mi

Pressure: 30.04 "Hg

Humidity: 15%

Dew Point: 37 °F

Location of PamplonaLocation

Past Weather in Pamplona — Graph

°F

Pamplona Temperature Yesterday

Maximum temperature yesterday: 99 °F (at 6:00 PM)
Minimum temperature yesterday: 59 °F (at 6:30 AM)
Average temperature yesterday: 79 °F

High & Low Weather Summary for the Past Weeks

 TemperatureHumidityPressure
High99 °F (Aug 23, 6:00 PM)88% (Aug 17, 3:30 AM)30.33 "Hg (Aug 17, 3:30 AM)
Low50 °F (Aug 12, 6:00 AM)11% (Aug 24, 3:30 PM)29.89 "Hg (Aug 17, 4:30 PM)
Average71 °F55%30.14 "Hg
* Reported Aug 9 7:00 PM — Aug 24 7:00 PM, Pamplona, Weather by CustomWeather, © 2016

Note: Actual official high and low records may vary slightly from our data, if they occured in-between our weather recording intervals... More about our weather records

Advertising

Pamplona Weather History for the Previous 24 Hours

Scroll right to see more
 ConditionsComfort  
Time TempWeatherWind HumidityBarometerVisibility
7:00 PM
Wed, Aug 24
93 °FPassing clouds.13 mph15%30.04 "HgN/A
6:30 PM95 °FPassing clouds.12 mph14%30.04 "HgN/A
6:00 PM95 °FPassing clouds.12 mph13%30.07 "HgN/A
5:30 PM95 °FPassing clouds.16 mph12%30.07 "HgN/A
5:00 PM97 °FPassing clouds.13 mph12%30.07 "HgN/A
4:30 PM95 °FPassing clouds.15 mph11%30.07 "HgN/A
4:00 PM95 °FPassing clouds.15 mph11%30.09 "HgN/A
3:30 PM97 °FPassing clouds.14 mph11%30.09 "HgN/A
3:00 PM91 °FSunny.14 mph18%30.09 "Hg10 mi
2:30 PM95 °FPassing clouds.13 mph12%30.09 "HgN/A
2:00 PM93 °FPassing clouds.14 mph14%30.09 "HgN/A
1:30 PM90 °FPassing clouds.9 mph20%30.12 "HgN/A
1:00 PM88 °FPassing clouds.9 mph24%30.12 "HgN/A
12:30 PM88 °FPassing clouds.5 mph24%30.12 "HgN/A
12:00 PM84 °FPassing clouds.3 mph31%30.15 "HgN/A
11:30 AM84 °FSunny.1 mph31%30.15 "Hg10 mi
11:00 AM81 °FSunny.1 mph34%30.15 "Hg10 mi
10:30 AM77 °FSunny.1 mph39%30.15 "Hg10 mi
10:00 AM75 °FSunny.2 mph44%30.18 "Hg10 mi
9:30 AM73 °FSunny.No wind50%30.18 "Hg10 mi
9:00 AM68 °FSunny.No wind60%30.18 "Hg10 mi
8:30 AM64 °FSunny.No wind68%30.18 "Hg10 mi
8:00 AM63 °FClear.1 mph73%30.18 "Hg10 mi
7:30 AM63 °FClear.No wind73%30.15 "Hg10 mi
7:00 AM64 °FClear.2 mph68%30.15 "Hg10 mi
6:30 AM64 °FClear.2 mph68%30.15 "Hg10 mi
6:00 AM64 °FClear.1 mph73%30.15 "Hg10 mi
5:30 AM64 °FMild.No wind68%30.15 "HgN/A
5:00 AM64 °FMild.No wind73%30.15 "HgN/A
4:30 AM66 °FMild.No wind73%30.15 "HgN/A
4:00 AM68 °FMild.No wind60%30.15 "HgN/A
3:30 AM68 °FMild.1 mph69%30.15 "HgN/A
3:00 AM70 °FMild.No wind64%30.15 "HgN/A
2:30 AM72 °FMild.No wind61%30.15 "HgN/A
2:00 AM73 °FMild.1 mph53%30.15 "HgN/A
1:30 AM73 °FMild.1 mph57%30.15 "HgN/A
1:00 AM73 °FMild.No wind61%30.15 "HgN/A
12:30 AM77 °FWarm.1 mph54%30.15 "HgN/A
12:00 AM77 °FClear.1 mph54%30.15 "Hg10 mi
11:30 PM
Tue, Aug 23
79 °FClear.No wind51%30.15 "Hg10 mi
11:00 PM81 °FClear.No wind45%30.15 "Hg10 mi
10:30 PM82 °FClear.2 mph42%30.15 "Hg10 mi
10:00 PM84 °FClear.2 mph40%30.12 "Hg10 mi
9:30 PM86 °FPassing clouds.5 mph35%30.12 "HgN/A
9:00 PM88 °FSunny.No wind33%30.12 "Hg10 mi
8:30 PM91 °FPassing clouds.6 mph30%30.09 "HgN/A
8:00 PM97 °FSunny.1 mph18%30.09 "Hg10 mi
Weather by CustomWeather, © 2016

See weather overviewHow to use our weather pages